Location: �terpigny
(49.8910°N, 2.9249°E)
Time: 03:55:59
(UTC+00:00)

Cosmos 614 Rocket - Pass Details

Date: 01 June 2022
Orbit: 732 x 764 km, 74.1° (Epoch: 06 July)

Event Time Altitude Azimuth Distance (km) Brightness Sun altitude
Rises 00:58:39 0° 334° (NNW) 3,222 8.0 -16.3°
Reaches altitude 10° 01:01:02 10° 332° (NNW) 2,297 7.1 -16.2°
Maximum altitude 01:06:13 71° 250° (WSW) 809 4.0 -15.9°
Enters shadow 01:09:43 21° 170° (S) 1,662 5.2 -15.7°
